Location: Pagani
(40.7500°N, 14.6167°E)
Time: 13:22:21
(UTC+00:00)

Cosmos 1782 - Pass Details

Date: 15 May 2026
Orbit: 458 x 463 km, 82.5° (Epoch: 11 June)

Event Time Altitude Azimuth Distance (km) Brightness Sun altitude
Rises 19:21:44 0° 194° (SSW) 2,470 5.9 -12.0°
Reaches altitude 10° 19:23:49 10° 198° (SSW) 1,602 5.0 -12.3°
Maximum altitude 19:27:16 60° 279° (W) 535 3.0 -12.8°
Drops below altitude 10° 19:30:46 10° 0° (N) 1,621 5.8 -13.3°
Sets 19:32:53 0° 4° (N) 2,503 6.7 -13.6°
